Find Starlink 3330

NORAD ID: 50836 Int'l Des: 2022-001 Owner: SPXS Country: US Constellation: starlink operational
LEOCIRCULAR

当前视图

正在加载3D地球...

About Starlink 3330

Starlink 3330 (NORAD 50836) is a starlink constellation satellite (v1.5) launched Jan 6, 2022 by SPXS of US. It operates in LEO, CIRCULAR orbit with a mass of 297.00 kg.

即将过境

Passes for default location (London). Set your location on the main map for personalized predictions.

高度历史

Loading altitude history...

两行轨道根数

1 50836U 22001AK 26207.58569855 .00001332 00000-0 54679-4 0 9999
2 50836 53.1591 270.0992 0001328 73.8181 286.2967 15.31708597251205
Epoch: Jul 26, 2026 • Age: 22 hours

当前状态

高度 476.3 km
远地点 / 近地点 N/A
速度 7.63 km/s
星下点 53.17°N, 140.65°W
发射日期 Jan 6, 2022
运行时间 4.5 years
类型 internet

技术详情

分类 Payload
质量 297.00 kg
干质量 275.00 kg
总质量 297.00 kg
长度 0.20 m
直径 2.80 m
跨度 9.00 m
形状 Box + pan
制造商 SPXS
平台类型 Starlink
阶段状态 In Orbit
所有者/国家 SPXS/US

Most Searched